Home   Weather   Gonaïves   Past weeks

Flag for Haiti Past Weather in Gonaïves, Haiti — Yesterday and Last 2 Weeks

Now
72 °F

Fog.


Feels Like: 65 °F
Forecast: 73 / 87 °F
Wind: 7 mph from Southeast

Location: Santiago

Current Time: Nov 22, 2017 at 4:33:35 am

Latest Report: Nov 22, 2017 at 4:00 am


Visibility: 0 mi

Pressure: 29.89 "Hg

Humidity: 100%

Dew Point: 72 °F

Location of GonaïvesLocation

Past Weather in Gonaïves — Graph

°F

Gonaïves Temperature Yesterday

Maximum temperature yesterday: 86 °F (at 12:00 pm)
Minimum temperature yesterday: 72 °F (at 12:00 am)
Average temperature yesterday: 76 °F

High & Low Weather Summary for the Past Weeks

 TemperatureHumidityPressure
High88 °F (Nov 13, 2:00 pm)100% (Nov 7, 2:00 am)29.98 "Hg (Nov 7, 2:00 am)
Low70 °F (Nov 7, 5:00 am)55% (Nov 13, 2:00 pm)29.53 "Hg (Nov 14, 6:00 pm)
Average77 °F89%29.85 "Hg
* Reported Nov 7 2:00 am — Nov 22 2:00 am, Gonaïves. Weather by CustomWeather, © 2017

Note: Actual official high and low records may vary slightly from our data, if they occured in-between our weather recording intervals... More about our weather records

Advertising

Gonaïves Weather History for the Previous 24 Hours

Scroll right to see more
 ConditionsComfort  
Time TempWeatherWind HumidityBarometerVisibility
2:00 am
Wed, Nov 22
73 °FFog.7 mph100%29.89 "Hg1 mi
11:00 pm
Tue, Nov 21
73 °FPassing clouds.3 mph100%29.92 "HgN/A
10:00 pm73 °FPassing clouds.5 mph100%29.92 "HgN/A
9:00 pm75 °FPassing clouds.5 mph94%29.92 "HgN/A
8:00 pm75 °FPartly cloudy.5 mph94%29.92 "HgN/A
7:00 pm75 °FPartly cloudy.7 mph94%29.89 "HgN/A
6:00 pm77 °FLight rain. Passing clouds.5 mph94%29.89 "Hg4 mi
5:00 pm77 °FBroken clouds.7 mph89%29.89 "HgN/A
4:00 pm79 °FBroken clouds.8 mph79%29.86 "HgN/A
3:00 pm81 °FBroken clouds.12 mph74%29.86 "HgN/A
2:00 pm84 °FThundershowers. Scattered clouds.15 mph66%29.83 "HgN/A
1:00 pm86 °FPassing clouds.16 mph62%29.86 "HgN/A
12:00 pm86 °FPassing clouds.14 mph66%29.89 "HgN/A
11:00 am84 °FPassing clouds.10 mph70%29.92 "HgN/A
10:00 am79 °FScattered clouds.12 mph84%29.95 "HgN/A
9:00 am79 °FScattered clouds.8 mph89%29.95 "HgN/A
8:00 am75 °FScattered clouds.6 mph89%29.92 "HgN/A
7:00 am72 °FScattered clouds.5 mph94%29.92 "HgN/A
6:00 am72 °FScattered clouds.No wind100%29.89 "HgN/A
5:00 am72 °FPassing clouds.No wind100%29.86 "HgN/A
4:00 am72 °FPassing clouds.No wind100%29.86 "HgN/A
Weather by CustomWeather, © 2017

See weather overview